Probability
0 1 1 1 0 1 2 1 0 0 0 0 0 0 0 0 0 0 0 0 0 0 0 0 0 0 0 0 0 0 0 0 0 0 0 0 0 0 0 0 0 0 0
0 0 0 0 0 1 2 2 1 0 0 0 0 0 0 0 0 0 0 0 0 0 0 0 0 0 0 0 0 0 0 0 0 0 0 0 0 0 0 0 0 0 0
0 0 0 0 0 0 1 1 1 0 0 0 0 0 0 0 0 0 0 0 0 0 0 0 0 0 0 0 0 0 0 0 0 0 0 0 0 0 0 0 0 0 0
0 0 0 0 0 0 0 0 0 0 0 0 0 0 0 0 0 0 0 0 0 0 0 1 0 0 0 0 0 0 0 0 0 0 0 0 0 0 0 0 0 0 0
0 0 0 0 0 0 0 0 0 0 0 0 0 0 0 0 0 0 0 0 0 0 0 0 0 0 0 0 0 0 0 0 0 0 0 0 0 0 0 0 0 0 0
0 0 0 0 0 0 0 0 0 0 0 0 1 1 0 0 0 0 0 0 0 0 0 0 0 0 0 0 0 0 0 0 0 0 0 0 0 0 0 0 0 0 0
0 0 0 1 1 0 0 0 0 0 0 1 1 1 0 0 0 0 0 0 0 0 0 0 0 0 0 0 0 0 0 0 0 0 0 0 0 0 0 0 0 0 0
0 0 0 1 1 0 0 0 0 0 0 1 2 1 0 0 0 0 0 0 0 0 0 0 0 0 0 0 0 0 0 0 0 0 0 0 0 0 0 0 0 0 0
0 0 0 0 0 0 0 0 0 0 0 1 1 1 0 0 0 0 0 0 0 0 0 0 0 0 0 0 0 0 0 0 0 0 0 0 0 0 0 0 0 0 0
0 0 0 0 0 0 0 0 0 0 0 0 0 0 0 0 0 0 0 0 0 0 0 0 0 0 0 0 0 0 0 0 0 0 0 0 0 0 0 0 0 0 0
0 0 0 0 0 0 0 0 0 0 0 0 0 0 0 0 0 0 0 0 0 0 0 0 0 0 0 0 0 0 0 0 0 0 0 0 0 0 0 0 0 0 0
0 0 0 0 0 0 0 0 1 1 1 0 0 0 0 0 0 0 0 0 0 0 0 0 0 0 0 0 0 0 0 0 0 0 0 0 0 0 0 0 0 0 0
0 0 0 0 0 0 0 0 1 2 2 1 0 0 0 0 0 0 0 0 0 0 0 0 0 0 0 0 0 0 0 0 0 0 0 0 0 0 0 0 0 0 1
1 2 1 0 0 0 0 0 1 2 3 2 1 0 0 0 0 0 0 0 0 0 0 0 0 0 0 0 0 0 0 0 0 0 0 0 0 0 0 0 0 0 1
1 2 3 1 0 0 0 0 1 2 3 2 1 0 0 0 0 0 0 0 0 0 0 0 0 0 0 0 0 0 0 0 0 0 0 0 0 0 0 0 0 0 1
0 1 2 1 0 0 0 0 1 2 3 2 1 0 0 0 0 0 0 0 0 0 0 0 0 0 0 0 0 0 0 0 0 0 0 0 0 0 0 0 0 0 0
0 1 1 1 0 0 0 0 1 2 1 1 1 1 0 0 0 0 0 0 0 0 0 0 0 0 0 0 0 0 0 0 0 0 0 0 0 0 0 0 0 0 0
0 0 1 1 1 0 0 0 1 2 1 1 2 1 0 0 0 0 0 0 0 0 0 0 0 0 0 0 0 0 0 0 0 0 0 0 0 0 0 0 0 0 0
0 0 0 1 2 1 0 0 1 2 1 1 1 1 0 0 0 0 0 0 0 0 0 0 0 0 0 0 0 0 0 0 0 0 0 0 0 0 0 0 0 0 0
0 0 0 1 2 2 1 0 0 1 1 0 0 0 0 0 0 0 0 0 0 0 0 0 0 0 0 0 0 0 0 0 0 0 0 0 0 0 0 0 0 0 0
0 0 1 2 3 3 2 1 0 0 0 0 0 0 0 0 0 0 0 0 0 0 0 0 0 0 0 0 0 0 0 0 0 0 0 0 0 0 0 0 0 0 0
1 1 1 2 3 3 2 1 1 1 0 0 0 0 0 0 0 0 0 0 0 0 0 0 0 0 0 0 0 0 0 0 0 0 0 0 0 0 0 0 0 0 0
2 2 2 3 4 4 3 2 1 1 0 0 0 0 0 0 0 0 0 0 0 0 0 0 0 0 0 0 0 0 0 0 0 0 0 0 0 0 0 0 0 0 0
1 1 2 3 5 6 5 3 2 1 0 0 0 0 0 0 0 0 0 0 0 0 0 0 0 0 0 0 0 0 0 0 0 0 0 0 0 0 0 0 0 0 0
1 0 1 3 5 6 6 5 4 2 1 1 0 0 0 0 0 0 0 0 0 0 0 0 0 0 0 0 0 0 0 0 0 0 0 0 0 0 0 0 0 0 0
1 1 0 2 5 6 6 6 5 3 2 2 1 0 0 0 0 0 0 0 0 0 0 0 0 0 0 0 0 0 0 0 0 0 0 0 0 0 0 0 0 0 0
Wind_Speed
1 1 3 3 5 7 8 8 9 9 10 10 10 10 11 11 11 11 11 11 11 10 11 11 12 12 11 11 11 11 11 11 11 11 10 10 10 10 9 8 5 7 9
1 1 2 3 5 6 7 8 8 9 9 10 10 10 10 11 11 11 11 11 11 11 11 11 11 11 11 11 11 10 10 10 10 10 7 7 8 9 9 8 8 7 8
2 2 2 4 5 6 7 8 8 9 9 9 10 10 10 10 10 11 11 10 10 11 11 11 11 10 11 10 10 10 10 10 9 7 3 5 7 8 8 8 8 7 7
3 2 2 4 5 6 7 8 8 9 9 9 9 9 10 10 10 10 10 10 10 10 11 11 11 10 10 10 10 9 9 9 8 3 3 5 5 7 7 7 7 6 6
3 3 3 5 6 7 7 8 8 8 9 9 9 9 10 10 10 10 10 9 10 10 10 10 10 10 9 9 9 9 8 8 5 3 5 4 5 7 7 7 7 6 5
3 3 4 5 6 7 7 8 8 8 8 8 9 9 10 10 10 10 9 9 9 9 9 9 9 9 9 8 8 8 7 6 2 4 4 4 4 6 6 6 6 6 5
4 3 4 6 7 7 7 8 8 8 8 8 9 9 9 9 9 9 9 9 9 9 9 9 8 9 8 8 8 7 7 5 3 4 4 4 5 6 5 4 4 5 5
4 4 4 6 7 7 7 8 8 8 8 8 9 9 9 9 8 9 8 8 8 8 8 8 8 8 8 8 8 8 6 4 3 3 3 4 6 6 6 5 4 4 5
4 4 4 4 5 6 7 8 8 8 8 8 9 9 9 9 9 9 8 8 8 8 8 8 7 7 7 7 8 7 6 5 3 3 3 4 7 7 6 6 5 4 4
4 4 4 3 3 4 5 7 7 8 8 8 9 8 8 8 8 8 8 8 7 7 8 7 7 7 7 7 7 6 5 2 3 3 3 4 7 7 7 7 6 4 4
3 3 3 3 3 3 3 4 5 6 7 6 6 7 5 4 4 5 7 8 8 7 7 7 7 7 5 5 6 5 3 2 3 3 3 6 7 6 6 7 6 5 4
2 2 2 2 2 2 2 2 2 3 3 3 3 3 2 3 3 4 6 7 7 7 6 6 6 4 3 2 3 2 2 3 3 3 4 7 7 6 7 7 6 6 6
2 1 1 1 2 2 2 2 1 1 2 3 3 3 2 2 2 2 2 2 3 3 3 3 3 2 3 3 3 3 3 3 2 2 5 8 7 6 6 6 6 6 6
2 2 1 1 2 2 2 2 2 1 2 2 2 3 2 2 2 2 2 2 2 2 2 2 2 3 3 3 3 3 3 3 2 2 4 8 8 7 6 6 6 6 5
1 1 1 2 2 2 2 2 2 2 2 2 2 2 2 2 2 2 2 2 2 2 2 2 2 2 2 3 3 3 3 3 3 2 2 7 8 7 7 7 6 6 5
2 2 2 2 3 3 2 2 2 2 2 2 2 2 2 1 1 1 1 2 2 2 2 2 2 2 2 2 3 3 3 3 3 3 3 3 6 7 8 8 8 8 7
2 2 2 2 3 3 3 3 2 2 2 1 1 1 1 1 1 1 1 1 2 2 2 2 2 2 2 2 2 3 2 3 2 3 3 3 3 5 7 7 8 8 8
3 3 2 2 3 3 3 3 2 2 2 1 1 1 1 1 1 1 1 1 2 1 1 2 2 2 2 2 2 2 2 2 2 2 2 3 3 3 4 7 8 8 8
3 3 3 3 3 4 4 3 3 2 2 1 1 1 1 1 0 0 1 1 1 1 1 1 2 2 2 3 3 3 2 2 2 2 2 3 3 3 3 4 6 7 8
3 3 4 3 4 3 3 2 2 2 1 1 1 0 1 1 1 0 0 1 1 1 1 1 2 2 2 3 2 2 2 2 2 1 2 2 2 3 4 4 3 4 6
3 3 4 4 4 4 3 3 3 2 2 2 1 1 1 1 1 1 1 1 1 1 1 2 1 1 2 2 2 2 2 2 2 2 2 2 3 3 4 4 4 4 3
3 3 4 3 3 4 4 3 2 2 2 1 1 1 1 1 1 1 1 1 1 1 1 1 2 1 1 2 2 3 2 2 1 2 2 3 3 3 4 4 4 4 4
4 5 4 4 3 4 4 3 2 2 2 2 2 2 2 2 2 2 2 2 1 1 1 2 2 2 2 1 2 3 3 3 3 2 2 2 3 3 4 4 4 4 4
5 4 4 4 3 3 4 4 5 3 3 3 2 2 2 2 2 2 3 2 2 2 2 2 2 2 2 2 2 2 3 4 4 4 2 2 4 5 5 4 4 4 4
3 3 4 4 3 3 4 5 5 4 3 2 2 2 2 2 2 2 3 3 3 3 2 2 2 2 2 3 2 2 3 3 5 5 6 5 4 4 5 4 3 3 4
2 2 3 3 4 3 4 4 5 5 4 3 3 3 2 2 2 3 3 3 3 2 3 2 2 2 2 3 2 3 3 3 3 4 6 7 6 5 5 4 3 3 3
Wind_Direction
120 16 357 31 61 66 71 71 73 76 77 77 75 73 73 72 71 68 66 64 65 70 71 71 72 71 73 73 71 72 71 67 63 60 62 64 65 67 68 63 64 76 69
137 114 26 42 69 72 75 75 74 75 76 77 76 74 73 72 71 69 65 63 63 66 70 71 70 70 71 73 72 72 71 67 63 56 54 76 70 65 66 61 51 63 68
110 110 97 59 74 81 79 78 77 77 78 77 76 75 73 71 71 70 66 65 65 65 66 69 68 69 70 71 72 72 70 65 60 51 40 71 74 66 64 58 58 61 64
109 110 108 70 82 87 85 81 79 79 80 79 78 77 76 75 72 70 67 65 66 65 64 65 65 67 70 69 70 70 69 64 54 25 57 56 63 59 57 56 52 53 57
108 103 95 79 89 90 89 86 83 80 79 79 79 78 77 76 73 70 66 65 65 65 64 64 63 62 65 67 67 67 66 62 49 46 60 52 54 51 48 51 48 45 47
109 103 100 79 88 89 88 88 86 82 79 78 78 78 76 74 71 69 66 63 63 62 60 60 59 59 58 61 62 63 62 53 44 60 54 47 45 39 35 44 46 42 44
113 110 107 79 81 84 86 85 84 82 78 76 76 77 76 73 70 68 65 63 61 59 57 55 55 55 54 53 55 57 53 32 39 52 45 44 38 18 15 32 39 40 44
106 111 112 81 76 78 78 80 78 76 74 72 72 73 73 71 68 66 65 63 60 59 58 55 53 53 51 47 48 49 42 17 48 45 40 42 27 9 18 30 39 43 42
104 104 108 107 94 80 77 73 72 71 70 70 72 70 67 65 64 60 59 59 59 58 57 54 52 50 47 44 43 43 35 10 21 41 32 30 19 13 25 28 28 33 34
108 102 97 97 108 106 97 78 75 71 68 68 67 65 65 66 64 58 56 53 53 55 52 48 46 45 42 39 40 39 27 350 23 30 23 25 13 9 15 15 13 14 19
103 98 103 99 90 105 107 96 89 79 73 72 68 63 66 76 75 66 54 49 49 47 46 43 40 37 34 43 40 33 14 5 18 21 20 17 6 4 5 5 5 9 11
133 102 102 115 108 108 106 109 107 103 98 90 82 77 71 66 57 56 58 48 43 39 42 37 29 26 5 22 42 20 13 12 12 19 22 14 3 5 9 10 8 11 14
163 123 91 114 122 117 116 106 96 101 99 88 78 72 70 71 64 55 62 54 45 36 36 30 16 9 12 9 10 16 15 9 12 13 20 16 6 3 5 6 8 4 8
169 151 126 124 132 124 118 111 95 93 95 88 82 67 67 68 59 53 47 38 32 22 14 13 11 16 17 18 14 14 14 6 6 6 20 19 13 7 4 4 7 4 9
189 169 155 161 149 143 134 124 110 100 95 92 90 80 64 70 60 52 48 35 25 15 10 4 5 11 19 20 14 11 10 8 3 358 19 30 21 13 6 5 5 7 4
207 195 177 177 170 156 149 143 135 123 113 103 87 76 73 65 62 57 53 38 22 7 0 353 358 357 6 5 5 7 1 354 1 353 357 23 33 19 10 6 4 3 2
223 207 193 182 184 175 166 159 147 135 134 120 107 93 79 55 41 43 52 37 11 356 356 353 357 356 0 359 356 356 353 351 355 359 352 353 11 27 17 8 2 359 356
235 218 204 192 189 188 179 173 165 150 153 147 139 131 111 75 32 31 38 23 358 352 357 353 349 349 347 339 334 336 331 330 344 347 352 352 350 355 13 16 8 4 359
233 222 206 197 198 191 184 181 176 162 163 159 146 142 135 117 75 41 20 6 337 344 348 342 339 337 337 340 330 324 317 311 317 335 346 348 352 349 348 8 7 2 352
235 222 212 201 197 188 180 181 181 172 174 170 177 176 177 164 169 201 261 339 331 335 339 336 335 339 330 330 319 314 304 294 297 314 319 328 337 339 338 333 331 345 345
238 220 219 212 198 187 188 192 194 196 192 188 197 208 222 230 225 225 246 261 299 314 330 326 324 326 335 330 306 304 276 260 282 305 312 315 323 325 328 327 324 320 320
231 223 219 214 205 199 202 200 201 194 196 202 191 211 231 248 256 242 242 247 261 282 292 319 318 303 320 329 305 295 290 250 229 297 300 305 309 312 317 322 323 318 317
237 229 218 212 208 209 204 190 178 184 195 200 212 220 225 231 241 253 250 248 249 252 269 282 287 283 283 293 303 295 292 293 313 244 268 283 301 306 306 308 311 313 313
245 237 228 215 207 207 200 196 194 202 216 222 222 223 222 227 239 249 252 244 243 245 254 260 266 274 271 277 282 280 288 299 288 289 266 274 293 294 295 294 295 299 305
252 238 225 213 209 205 201 200 203 216 225 229 220 231 237 237 240 244 247 243 242 244 247 251 255 262 263 269 274 276 266 269 266 275 285 289 287 285 291 291 289 295 298
263 246 228 215 219 213 209 210 209 218 221 220 224 232 238 246 244 241 242 241 245 244 244 245 245 246 251 261 266 268 270 270 268 267 275 286 289 289 286 287 292 295 299